Regional Weather Roundup
Issued by NWS Green Bay, WI

Home | Current Version | Previous Version | Text Only | Print | Product List | Glossary On
Versions: 1 2 3 4 5 6 7 8 9 10 11 12 13 14 15 16 17 18 19 20 21 22 23 24 25 26 27 28 29 30 31 32 33 34 35 36 37 38 39 40 41 42 43 44 45 46 47 48 49 50
000
ASUS43 KGRB 191711
RWRGRB

NORTH-CENTRAL AND NORTHEAST WISCONSIN REGIONAL WEATHER ROUNDUP
NATIONAL WEATHER SERVICE GREEN BAY WI
1100 AM CST MON FEB 19 2018

WIZ005-009-010>012-018-019-191800-
NORTH CENTRAL WISCONSIN

CITY           SKY/WX    TMP DP  RH WIND       PRES   REMARKS
IRONWOOD       LGT SNOW  18  12  79 NE16G22   30.03F WCI   3
MANITOWISH WTR LGT SNOW  17  15  93 NE10G16   29.96S WCI   4
ARBOR VITAE    LGT SNOW  21  17  84 NE8       29.94R
EAGLE RIVER    LGT SNOW  19  15  84 NE12      29.94S WCI   7
LAND O LAKES   LGT SNOW  19  17  93 NE8G17    29.97S VSB 1   WCI   8
RHINELANDER    CLOUDY    22  18  85 NE13G18   29.92F WCI  10
PHILLIPS       FLURRIES  19  16  89 NE14G22   29.93S WCI   5
ANTIGO         CLOUDY    28  25  89 NE15      29.90R
TOMAHAWK       CLOUDY    22  18  82 NE10      29.92S
MERRILL        CLOUDY    26  22  87 NE7       29.91R
$$

WIZ013-073-191800-
NORTHEAST WISCONSIN

CITY           SKY/WX    TMP DP  RH WIND       PRES   REMARKS
IRON MOUNTAIN  CLOUDY    23  17  78 N15G26    29.96S
MARINETTE      CLOUDY    33  26  75 NE13      29.96R
OCONTO         CLOUDY    33  29  86 N8        29.93R
$$

WIZ017-030-035>037-045-191800-
CENTRAL WISCONSIN

CITY           SKY/WX    TMP DP  RH WIND       PRES   REMARKS
MEDFORD        MIX PCPN  23  19  85 NE15      29.87R
WAUSAU         CLOUDY    31  25  78 NE12G20   29.86R HAZE
MOSINEE        CLOUDY    28  28 100 NE10      29.88R FOG
MARSHFIELD     CLOUDY    31  27  85 NE15      29.83S FOG
WISC RAPIDS    CLOUDY    33  28  81 E14       29.85S
STEVENS POINT  CLOUDY    30  28  92 NE10G16   29.87R
WAUPACA        CLOUDY    37  30  76 NE6       29.88R
SHAWANO        CLOUDY    34  29  82 NE13      29.90S
CLINTONVILLE   CLOUDY    33  28  81 NE8       29.90R
WAUTOMA        CLOUDY    36  31  82 E9        29.86R
$$

WIZ038-039-048-051-191800-
FOX VALLEY

CITY           SKY/WX    TMP DP  RH WIND       PRES   REMARKS
NWS GREEN BAY  CLOUDY    34  29  82 NE20      29.92R HAZE
APPLETON       PTSUNNY   37  28  70 NE9       29.87R
OSHKOSH        CLOUDY    37  31  78 NE9       29.88R
FOND DU LAC    CLOUDY    41  32  70 E6        29.87R
$$

WIZ022-050-052-191800-
EAST CENTRAL WISCONSIN

CITY           SKY/WX    TMP DP  RH WIND       PRES   REMARKS
EPHRAIM        CLOUDY    29  26  86 N17G25    29.94R
WASHINGTON ISL CLOUDY    30  26  85 N14       29.96R
STURGEON BAY   PTSUNNY   33  29  85 N13       29.94R
MANITOWOC      PTSUNNY   39  33  79 CALM      29.91R
SHEBOYGAN      LGT RAIN  39  35  86 CALM      29.88R
$$

LMZ563-521-522-541>543-191800-
LAKESHORE

STATION/POSITION TIME  TEMP    WIND        PRES    VSBY  WAVE
                       AIR SEA DIR/SP/G                  HT/PER
                 (UTC) (F)     (DEG/KT/KT) (MB)    (MI)  (FT/S)
SHEBOYGAN LKSHOR 1700   36     100/  4/  5 1012.2R
KEWAUNEE LKSHORE 1642   38      20/  5/  7 1012.0R
NORTHPORT PIER   1640   30                 1014.2R
SISTER BAY LKSHO 1620   32     350/ 15/ 23   N/A
MENOMINEE LKSHOR 1636   31     360/ 16/ 18 1013.6R
$$




USA.gov is the U.S. government's official web portal to all federal, state and local government web resources and services.